Precipitable_Water
0.79 0.63 0.51 0.53 0.32 0.40 0.38 0.48 0.59 0.65 0.67 0.78 0.77 0.70 0.67 0.71 0.68 0.59 0.92 0.99 1.01 0.99 1.04 1.03 0.97 0.94 0.87 0.81 0.79 0.80 0.78 0.77 0.75 0.74 0.73 0.71 0.67 0.63 0.60 0.57 0.57 0.57 0.60 0.62 0.62 0.64 0.67 0.66 0.66
0.73 0.52 0.54 0.49 0.29 0.28 0.32 0.53 0.61 0.76 0.82 0.83 0.80 0.80 0.77 0.68 0.86 0.85 0.85 1.07 1.10 1.05 1.04 1.01 0.98 0.93 0.89 0.82 0.81 0.81 0.80 0.79 0.77 0.76 0.75 0.74 0.71 0.69 0.68 0.67 0.67 0.67 0.70 0.74 0.74 0.72 0.73 0.78 0.81
0.67 0.68 0.46 0.42 0.35 0.28 0.37 0.62 0.69 0.75 0.83 0.80 0.75 0.86 0.82 0.80 0.93 0.92 1.00 1.10 1.14 1.09 1.08 1.02 0.99 0.95 0.90 0.84 0.82 0.81 0.81 0.80 0.79 0.79 0.79 0.78 0.77 0.76 0.75 0.76 0.76 0.77 0.81 0.84 0.84 0.88 0.87 0.86 0.95
0.59 0.57 0.53 0.36 0.32 0.37 0.49 0.63 0.67 0.68 0.78 0.85 0.82 0.71 0.85 0.98 0.95 1.01 1.07 1.12 1.09 1.07 1.10 1.05 1.02 0.96 0.94 0.88 0.85 0.83 0.85 0.82 0.81 0.81 0.82 0.80 0.80 0.81 0.81 0.83 0.84 0.86 0.89 0.92 0.93 0.98 0.99 1.00 1.05
0.63 0.50 0.36 0.34 0.32 0.39 0.47 0.61 0.66 0.64 0.71 0.78 0.80 0.71 0.76 0.95 1.04 1.11 1.04 1.08 1.00 1.06 1.10 1.07 1.05 1.01 0.99 0.92 0.90 0.89 0.88 0.87 0.85 0.84 0.85 0.84 0.84 0.85 0.86 0.88 0.89 0.92 0.96 0.96 0.97 1.01 1.04 1.07 1.10
0.50 0.52 0.36 0.28 0.31 0.39 0.48 0.58 0.68 0.66 0.79 0.74 0.74 0.75 0.77 0.93 0.93 1.02 1.06 1.04 1.09 1.05 1.08 1.10 1.09 1.06 1.01 0.99 0.95 0.94 0.93 0.91 0.90 0.89 0.87 0.87 0.87 0.89 0.91 0.92 0.93 0.97 1.02 1.02 1.05 1.08 1.09 1.07 1.06
0.50 0.47 0.39 0.37 0.35 0.38 0.48 0.62 0.65 0.66 0.67 0.69 0.78 0.71 0.81 0.86 0.96 1.05 1.11 1.13 1.14 1.14 1.12 1.13 1.12 1.09 1.04 1.03 0.99 0.97 0.95 0.92 0.93 0.94 0.93 0.90 0.92 0.92 0.94 0.96 0.96 1.00 1.07 1.10 1.06 1.09 1.10 1.07 1.02
0.58 0.51 0.43 0.44 0.41 0.41 0.52 0.59 0.71 0.71 0.69 0.78 0.85 0.71 0.70 0.83 0.94 1.02 1.16 1.13 1.15 1.13 1.11 1.15 1.17 1.17 1.07 1.05 1.00 1.01 1.01 0.98 0.97 0.99 0.99 0.95 0.96 0.97 0.96 0.97 0.97 1.02 1.10 1.12 1.11 1.09 1.11 1.11 1.05
0.71 0.46 0.40 0.45 0.47 0.51 0.63 0.59 0.68 0.80 0.75 0.76 0.79 0.78 0.85 0.88 0.92 0.93 1.02 1.07 1.11 1.14 1.15 1.19 1.17 1.17 1.14 1.10 1.09 1.01 1.02 1.03 1.02 1.04 1.05 1.02 1.00 0.99 0.98 0.97 0.97 1.04 1.13 1.14 1.14 1.11 1.10 1.11 1.09
0.73 0.51 0.46 0.53 0.53 0.56 0.63 0.69 0.76 0.72 0.70 0.71 0.75 0.80 0.87 0.85 0.85 0.83 0.84 0.88 0.99 1.05 1.11 1.18 1.20 1.16 1.16 1.12 1.10 1.08 1.08 1.09 1.11 1.12 1.11 1.08 1.02 1.00 0.97 0.98 0.99 1.06 1.17 1.19 1.20 1.16 1.14 1.15 1.11
0.72 0.56 0.62 0.59 0.61 0.61 0.61 0.64 0.71 0.66 0.64 0.72 0.72 0.76 0.81 0.82 0.83 0.81 0.80 0.81 0.86 0.95 1.06 1.15 1.18 1.19 1.16 1.10 1.08 1.07 1.07 1.08 1.11 1.17 1.15 1.14 1.05 1.02 1.02 0.97 0.99 1.08 1.20 1.20 1.24 1.18 1.17 1.14 1.10
0.59 0.68 0.71 0.69 0.73 0.73 0.70 0.73 0.67 0.67 0.63 0.70 0.77 0.79 0.82 0.80 0.80 0.79 0.77 0.77 0.78 0.83 0.91 1.05 1.15 1.17 1.14 1.13 1.06 1.04 1.07 1.07 1.05 1.14 1.20 1.19 1.10 1.01 0.97 0.95 0.93 1.07 1.15 1.17 1.24 1.18 1.16 1.15 1.14
0.51 0.56 0.67 0.73 0.72 0.69 0.72 0.63 0.61 0.60 0.67 0.71 0.73 0.75 0.77 0.78 0.78 0.79 0.78 0.79 0.79 0.78 0.82 0.95 1.05 1.08 1.13 1.09 1.05 1.07 1.08 1.05 1.09 1.15 1.22 1.23 1.13 1.01 0.99 0.97 0.98 1.10 1.15 1.21 1.23 1.16 1.15 1.14 1.15
0.50 0.49 0.52 0.59 0.63 0.66 0.64 0.60 0.61 0.58 0.64 0.67 0.70 0.72 0.74 0.73 0.73 0.75 0.75 0.73 0.75 0.75 0.73 0.81 0.94 0.99 1.10 1.07 1.03 1.07 1.12 1.10 1.12 1.19 1.24 1.26 1.19 1.10 1.06 1.00 1.07 1.16 1.19 1.26 1.22 1.21 1.19 1.17 1.18
0.47 0.44 0.48 0.48 0.51 0.55 0.62 0.51 0.48 0.59 0.63 0.61 0.64 0.67 0.68 0.69 0.72 0.70 0.70 0.68 0.67 0.65 0.68 0.72 0.80 0.94 1.01 1.05 1.08 1.09 1.12 1.15 1.15 1.19 1.27 1.30 1.22 1.17 1.12 1.10 1.22 1.23 1.30 1.26 1.29 1.29 1.26 1.22 1.19
0.35 0.36 0.32 0.42 0.48 0.50 0.53 0.33 0.47 0.54 0.55 0.56 0.60 0.61 0.62 0.63 0.61 0.63 0.67 0.64 0.59 0.62 0.63 0.66 0.79 0.86 0.95 1.02 1.09 1.11 1.14 1.17 1.20 1.24 1.27 1.32 1.24 1.20 1.21 1.28 1.35 1.44 1.42 1.38 1.34 1.30 1.25 1.20 1.15
0.30 0.20 0.21 0.27 0.34 0.36 0.37 0.24 0.34 0.46 0.52 0.50 0.52 0.55 0.55 0.54 0.56 0.56 0.58 0.59 0.61 0.61 0.62 0.65 0.75 0.82 0.90 1.02 1.07 1.09 1.13 1.17 1.24 1.25 1.27 1.34 1.31 1.33 1.35 1.43 1.56 1.51 1.46 1.39 1.36 1.29 1.23 1.06 1.18
0.20 0.20 0.24 0.24 0.29 0.29 0.26 0.22 0.29 0.32 0.36 0.41 0.46 0.48 0.46 0.45 0.45 0.49 0.54 0.57 0.57 0.60 0.66 0.69 0.75 0.85 0.94 1.02 1.05 1.09 1.13 1.18 1.27 1.26 1.32 1.38 1.42 1.45 1.47 1.56 1.53 1.49 1.40 1.38 1.32 1.19 1.11 1.16 1.19
0.26 0.26 0.25 0.28 0.32 0.28 0.24 0.23 0.25 0.31 0.31 0.29 0.29 0.30 0.31 0.34 0.38 0.49 0.47 0.49 0.59 0.63 0.66 0.68 0.75 0.86 0.93 0.95 0.95 1.00 0.98 1.11 1.21 1.31 1.41 1.45 1.44 1.47 1.50 1.49 1.47 1.45 1.38 1.32 1.21 1.05 1.16 1.15 1.22
0.24 0.23 0.24 0.29 0.33 0.30 0.23 0.24 0.26 0.28 0.29 0.32 0.30 0.30 0.32 0.33 0.37 0.40 0.48 0.55 0.58 0.59 0.63 0.66 0.72 0.81 0.88 0.95 0.99 1.05 1.08 1.16 1.26 1.37 1.45 1.47 1.49 1.57 1.49 1.42 1.38 1.40 1.33 1.18 1.06 1.18 1.10 1.13 1.21
0.21 0.22 0.23 0.24 0.30 0.30 0.26 0.20 0.22 0.23 0.27 0.29 0.30 0.30 0.30 0.33 0.35 0.38 0.42 0.47 0.50 0.56 0.62 0.66 0.71 0.77 0.84 0.97 1.06 1.11 1.15 1.20 1.24 1.32 1.39 1.46 1.52 1.55 1.49 1.36 1.37 1.33 1.17 1.09 1.18 1.16 1.10 1.03 1.11
0.17 0.23 0.24 0.26 0.25 0.18 0.26 0.13 0.15 0.17 0.17 0.21 0.23 0.26 0.28 0.30 0.34 0.36 0.43 0.46 0.52 0.55 0.61 0.65 0.74 0.80 0.91 0.98 1.01 1.02 1.00 1.06 1.16 1.28 1.38 1.44 1.49 1.46 1.37 1.35 1.32 1.17 1.18 1.17 1.12 1.13 1.07 1.10 0.99
0.16 0.21 0.20 0.21 0.21 0.21 0.20 0.17 0.11 0.16 0.14 0.15 0.17 0.20 0.22 0.25 0.27 0.30 0.36 0.48 0.53 0.58 0.64 0.73 0.81 0.88 0.97 1.01 1.08 1.13 1.14 1.21 1.26 1.27 1.33 1.39 1.39 1.37 1.33 1.30 1.23 1.15 1.20 1.08 1.10 1.05 1.08 1.16 1.10
0.23 0.20 0.20 0.17 0.20 0.14 0.15 0.16 0.07 0.12 0.13 0.15 0.18 0.21 0.25 0.29 0.33 0.38 0.53 0.63 0.68 0.78 0.83 0.93 0.92 0.95 1.07 1.14 1.22 1.22 1.20 1.21 1.22 1.30 1.27 1.31 1.28 1.26 1.25 1.19 1.11 1.15 1.06 1.08 1.04 1.13 1.14 1.18 1.18
0.25 0.21 0.15 0.13 0.14 0.10 0.18 0.14 0.10 0.16 0.20 0.21 0.21 0.24 0.27 0.29 0.36 0.49 0.62 0.69 0.75 0.84 0.95 1.01 1.04 1.03 1.18 1.26 1.28 1.28 1.27 1.28 1.25 1.26 1.21 1.13 1.12 1.06 0.99 1.08 1.10 1.00 1.06 1.05 1.12 1.14 1.20 1.21 1.15
0.22 0.21 0.16 0.12 0.11 0.11 0.16 0.12 0.13 0.17 0.19 0.18 0.21 0.25 0.27 0.32 0.47 0.62 0.73 0.78 0.86 0.96 1.06 1.08 1.09 1.11 1.24 1.27 1.24 1.24 1.26 1.25 1.21 1.15 1.11 1.08 1.00 0.98 1.10 1.07 1.00 1.01 1.05 1.10 1.12 1.21 1.29 1.25 1.18
0.23 0.18 0.22 0.18 0.18 0.13 0.14 0.13 0.16 0.17 0.15 0.21 0.21 0.22 0.28 0.39 0.54 0.67 0.80 0.88 0.91 0.98 1.09 1.11 1.15 1.17 1.18 1.15 1.15 1.15 1.16 1.11 1.08 1.06 0.98 0.97 0.98 1.07 1.07 0.98 0.94 1.02 1.10 1.15 1.22 1.29 1.27 1.25 1.20
0.26 0.28 0.18 0.18 0.13 0.12 0.12 0.12 0.10 0.13 0.13 0.23 0.23 0.28 0.36 0.50 0.61 0.76 0.86 0.90 0.97 1.04 1.13 1.17 1.12 1.03 1.05 1.07 1.07 1.05 1.01 0.98 0.94 0.94 0.91 0.96 1.07 1.08 0.95 0.93 1.02 1.09 1.13 1.22 1.30 1.34 1.30 1.21 1.20
0.25 0.24 0.23 0.20 0.17 0.14 0.11 0.11 0.19 0.15 0.21 0.25 0.27 0.34 0.42 0.54 0.68 0.80 0.88 0.95 1.01 1.06 1.06 1.02 1.00 0.99 1.01 1.03 1.00 0.91 0.89 0.91 0.92 0.89 0.96 1.07 1.09 0.92 0.94 1.02 1.03 1.08 1.15 1.29 1.35 1.36 1.32 1.18 1.12
0.26 0.26 0.26 0.19 0.15 0.16 0.16 0.12 0.19 0.25 0.32 0.39 0.40 0.40 0.53 0.66 0.77 0.87 0.92 0.95 0.94 0.95 0.96 0.96 0.98 0.98 0.97 0.93 0.85 0.83 0.84 0.82 0.83 0.93 1.07 1.15 1.01 0.96 1.03 1.02 1.02 1.09 1.26 1.36 1.35 1.37 1.35 1.23 1.19
Wind_Speed
14 13 13 12 10 9 10 9 8 6 6 6 4 5 7 6 8 10 7 7 5 5 5 6 6 6 5 6 6 7 7 6 6 6 7 8 9 9 9 10 12 12 12 13 14 14 15 15 16
15 14 14 12 11 11 12 11 12 7 7 7 8 7 9 9 9 8 7 8 7 6 6 7 7 7 7 7 7 8 8 7 7 7 8 8 9 10 10 11 12 13 13 14 15 15 16 16 16
16 16 14 14 14 13 13 11 10 10 11 9 8 12 12 13 12 11 11 10 8 9 8 8 7 7 8 8 8 9 9 9 9 9 9 9 10 10 10 11 12 13 14 15 15 15 15 16 16
18 17 16 16 17 16 14 12 11 13 13 12 11 10 12 14 12 12 11 11 11 11 10 10 10 8 9 9 9 10 10 10 10 10 10 10 11 11 11 12 13 13 14 15 15 15 15 15 16
19 17 17 18 19 17 17 16 15 14 12 13 13 13 10 11 12 11 12 12 13 12 12 12 12 12 11 11 12 13 12 12 12 12 12 12 12 12 12 13 14 14 15 15 15 15 16 16 17
19 19 17 19 20 18 16 17 15 13 13 15 12 11 13 15 13 13 13 15 15 14 13 13 14 14 14 15 15 15 16 15 15 15 14 14 13 13 14 14 15 15 16 16 16 16 17 17 17
21 20 21 20 18 17 18 18 15 13 11 11 11 12 11 12 14 15 17 17 16 15 14 14 15 17 18 19 19 19 18 18 17 17 16 16 15 15 15 15 16 16 16 17 17 17 18 18 18
24 23 23 23 21 20 19 20 17 13 13 11 10 12 14 13 16 16 18 18 18 18 18 19 20 21 22 20 21 21 21 20 20 19 19 18 18 17 17 17 17 17 18 18 18 18 18 19 19
27 27 28 26 23 22 21 21 26 20 22 19 16 14 15 16 16 19 19 20 22 22 22 23 24 25 25 24 24 24 23 23 22 21 21 21 20 20 19 19 18 19 19 18 19 19 19 19 19
31 32 33 29 28 22 22 25 29 29 32 28 26 23 20 19 20 20 21 23 26 26 27 27 28 28 28 27 27 27 26 24 24 23 23 23 22 22 21 20 20 20 20 20 20 20 21 20 20
36 39 34 33 33 32 29 33 30 29 32 33 31 28 27 25 24 25 24 25 27 29 29 30 30 30 30 29 29 28 27 26 26 26 25 24 24 24 23 22 22 22 22 22 22 22 22 22 21
39 39 39 38 35 35 36 34 37 35 38 33 35 35 33 33 31 29 29 28 30 32 33 33 33 33 33 31 31 30 29 28 26 27 27 26 25 25 24 24 24 24 23 23 23 23 23 23 23
44 43 41 40 39 38 37 40 41 41 36 35 34 36 36 35 35 33 34 35 34 33 35 35 36 37 35 34 33 31 30 29 29 29 29 28 27 26 25 25 25 25 25 24 25 24 24 25 24
38 38 43 43 42 39 38 42 40 42 37 36 36 36 36 37 36 36 35 36 37 39 39 39 38 37 36 35 32 31 31 30 30 30 30 30 28 27 26 26 26 26 25 26 26 26 26 26 25
43 44 43 43 37 38 35 46 48 39 37 38 38 39 38 38 38 39 39 40 41 41 39 36 36 34 34 34 33 31 31 30 30 31 31 31 29 28 27 26 26 25 25 26 27 27 27 27 26
36 38 43 44 42 37 32 53 40 32 33 37 37 37 37 39 39 39 39 40 40 38 36 35 35 33 33 32 31 31 30 30 30 30 30 30 29 28 27 26 25 25 25 26 27 28 28 28 27
36 37 39 34 34 34 38 52 38 35 37 40 39 39 40 40 39 39 39 37 36 36 36 36 35 34 32 31 31 29 29 28 28 28 27 28 28 27 27 26 24 23 25 26 27 27 28 27 26
36 38 31 31 31 33 38 47 39 34 35 38 39 40 40 40 39 38 36 35 34 35 33 34 33 33 31 28 27 28 28 28 28 27 26 26 26 25 25 24 23 24 25 26 25 26 26 25 25
33 29 31 30 31 32 38 42 38 36 37 38 40 40 39 36 35 36 35 34 32 31 31 32 30 30 28 27 27 28 28 27 26 25 24 24 24 23 23 23 23 24 25 24 24 24 25 23 22
36 36 33 30 31 29 33 35 36 35 36 35 36 35 34 34 31 30 29 28 29 31 31 28 28 27 29 29 29 27 26 25 24 23 23 23 22 22 21 22 22 23 23 23 23 23 21 20 20
34 33 32 32 28 34 32 39 37 37 35 35 34 32 30 30 29 28 29 30 31 30 28 27 26 26 25 26 26 25 23 21 21 21 21 21 21 20 20 21 20 21 21 21 21 20 18 17 17
39 33 31 27 26 30 26 35 39 35 38 35 33 30 30 30 29 28 27 28 27 28 27 27 26 25 24 23 23 24 22 20 19 19 19 19 19 19 19 19 19 20 20 19 18 16 15 15 15
32 33 32 32 31 25 27 24 29 21 26 29 28 30 31 30 28 28 27 25 24 24 25 24 22 20 19 19 17 17 17 17 16 17 18 17 17 16 17 18 18 18 18 17 14 13 14 14 13
27 25 28 29 24 27 28 26 32 25 24 23 22 22 21 19 19 19 19 19 18 18 18 16 16 15 14 14 14 15 15 15 15 15 16 15 14 14 16 16 16 16 14 13 11 11 11 12 11
26 21 21 21 24 28 18 27 30 10 12 15 16 16 17 17 16 15 14 13 13 12 10 10 11 11 12 12 12 13 13 14 14 14 14 13 13 14 15 15 15 13 11 10 9 10 10 10 8
27 28 23 22 23 23 28 24 21 18 19 21 20 20 18 16 13 11 10 9 8 6 6 8 9 9 10 10 10 11 12 12 12 12 12 13 13 13 13 12 11 10 9 9 8 10 10 9 7
23 26 28 18 22 20 24 25 27 22 21 18 17 17 17 15 12 10 8 7 6 7 7 7 8 8 8 9 9 9 10 10 10 11 11 11 11 11 10 9 8 8 7 8 8 9 9 8 6
23 24 24 23 21 21 22 23 25 15 17 14 14 14 14 13 11 9 7 6 7 7 7 8 7 7 7 7 7 7 8 9 9 9 10 10 9 8 7 7 6 6 7 7 8 9 8 7 5
22 23 25 26 26 20 18 22 20 17 18 17 18 15 14 13 12 10 7 6 7 8 8 8 7 7 6 6 6 6 7 7 8 9 8 8 6 5 5 5 5 5 6 7 7 8 8 6 5
21 25 25 25 26 27 23 25 17 15 13 12 14 14 12 12 12 10 8 8 9 9 9 8 7 6 6 6 5 6 6 7 7 7 7 7 6 5 4 4 3 5 6 6 8 7 6 6 5
Wind_Direction
215 212 207 206 206 207 221 225 230 244 214 239 251 233 236 257 242 257 238 229 282 277 276 283 289 295 301 306 315 322 326 328 331 335 340 340 339 334 331 328 326 319 315 311 304 295 288 282 276
214 209 208 209 207 209 225 222 220 234 251 244 244 259 256 258 262 242 243 239 268 282 280 281 282 285 292 297 302 310 313 313 313 317 323 326 328 329 328 329 327 321 316 313 309 302 293 285 278
214 212 213 214 213 210 219 214 228 260 259 260 271 267 252 254 265 239 253 238 263 277 272 272 278 290 293 295 301 302 304 303 298 300 306 312 316 321 322 324 326 324 318 316 314 308 300 291 283
217 220 228 222 221 223 218 225 250 263 259 261 266 281 274 245 242 246 232 246 267 276 271 267 273 275 292 290 296 299 299 297 293 292 296 302 307 311 313 317 322 323 321 318 316 312 306 297 290
220 223 230 230 225 223 228 243 255 262 255 268 266 262 259 243 244 235 236 255 268 276 273 267 266 268 282 286 288 290 293 294 291 288 290 295 301 303 306 311 318 321 321 320 317 315 309 302 293
225 227 233 230 226 221 232 239 249 262 255 272 267 259 261 251 241 240 253 261 270 276 273 270 266 266 274 281 284 285 286 287 286 285 283 286 292 296 299 305 312 317 319 319 317 315 313 306 296
226 230 233 232 229 233 233 239 245 260 270 271 262 257 258 249 244 254 265 268 270 278 271 272 267 270 276 280 277 279 280 280 279 280 278 277 284 291 294 299 306 312 315 316 316 314 314 310 302
230 233 237 235 229 235 239 242 240 259 261 277 262 256 256 253 254 264 268 264 269 275 276 275 273 275 281 280 276 275 276 276 275 275 275 274 278 285 290 293 300 305 309 312 314 314 314 311 306
233 237 236 236 231 236 246 250 249 255 266 261 262 269 260 266 264 267 267 267 270 274 276 278 276 279 280 282 280 277 272 272 271 271 272 272 275 279 284 288 293 299 303 307 310 311 313 312 309
235 238 238 238 239 242 249 253 252 263 263 257 258 259 258 274 269 268 268 272 269 274 278 277 277 278 278 280 278 277 272 271 270 268 270 271 273 275 280 283 287 293 298 302 305 306 309 310 310
239 242 244 245 246 248 251 259 261 262 256 257 255 255 262 265 269 269 270 273 274 275 279 277 277 276 277 276 276 275 269 269 268 266 269 271 271 272 276 279 284 289 292 297 301 302 304 306 307
246 244 245 249 249 252 255 260 259 257 258 260 256 256 260 264 267 267 268 275 279 277 279 276 276 276 276 276 274 272 267 266 267 267 266 270 271 271 274 277 281 286 289 293 297 300 300 302 302
244 246 248 250 252 254 258 257 258 259 261 259 256 258 259 261 263 266 271 275 278 278 279 276 277 275 273 275 274 267 263 263 265 268 265 266 269 269 271 275 279 283 286 289 295 296 297 299 297
244 247 249 250 252 254 257 259 260 258 260 259 256 255 257 261 264 266 270 274 277 278 279 276 276 275 269 272 268 265 262 263 264 268 267 263 266 267 270 273 276 282 283 288 292 294 295 296 294
247 251 252 249 250 253 260 261 255 260 260 259 257 259 260 260 264 267 271 274 277 278 279 274 272 273 269 268 265 263 261 264 266 269 265 259 262 266 267 272 275 279 284 287 291 292 293 294 292
244 245 248 250 249 252 252 257 255 257 257 257 257 258 260 264 267 271 272 275 276 275 274 273 272 271 269 267 264 261 260 264 267 269 264 258 260 264 265 269 273 278 284 289 290 291 292 293 289
242 245 246 253 247 248 242 255 259 259 258 259 260 260 263 265 266 270 272 274 273 273 275 272 271 266 269 267 262 258 260 263 268 269 261 256 260 262 265 267 271 278 286 290 290 291 294 293 289
241 244 248 247 247 245 248 255 260 260 258 258 260 261 263 266 269 271 269 271 273 274 273 273 269 265 264 265 259 258 260 264 268 266 258 254 260 262 267 269 274 280 287 290 291 293 295 294 291
246 247 247 249 250 248 250 256 260 259 258 258 260 261 263 264 268 268 268 270 272 270 273 272 268 262 260 258 259 260 261 264 264 260 253 253 258 262 264 267 276 281 287 290 292 295 295 294 290
240 245 248 251 252 253 256 260 262 259 258 259 260 261 263 265 265 266 267 268 269 272 273 270 264 260 261 258 259 261 260 263 261 254 250 253 257 261 263 271 275 282 287 290 293 294 294 293 290
238 239 243 247 255 258 262 264 259 258 258 259 259 260 259 259 262 266 268 271 272 270 268 266 265 261 261 258 257 256 256 258 256 249 249 251 256 260 268 273 276 283 287 291 293 293 290 293 294
240 238 242 245 243 249 250 266 261 258 256 255 256 256 256 257 261 264 269 273 270 268 268 266 263 261 259 256 253 248 251 248 249 247 246 249 258 263 268 273 279 285 289 291 292 291 292 295 295
238 237 237 238 243 249 245 256 260 245 251 252 254 254 256 256 259 264 266 271 271 270 273 262 255 255 250 248 244 239 240 243 244 245 250 252 262 261 267 276 281 284 289 289 286 289 294 298 298
230 232 231 232 233 241 239 240 259 246 250 251 249 249 248 249 256 265 270 273 270 271 269 252 240 242 235 234 233 232 233 237 242 245 251 256 259 264 273 277 281 285 283 281 283 291 298 304 301
220 219 223 222 226 233 240 225 234 241 243 238 240 247 247 254 258 264 267 266 273 264 246 231 224 225 225 226 228 229 232 235 237 242 247 248 258 267 274 278 280 275 274 275 280 294 297 304 297
218 213 217 219 224 232 230 233 236 239 238 249 253 250 249 245 250 252 254 263 264 229 224 208 207 213 218 221 227 230 230 234 239 238 241 253 260 271 275 274 268 270 266 272 279 294 296 300 290
217 215 218 229 229 228 230 239 245 244 254 245 248 248 241 238 237 240 242 250 231 211 206 201 202 207 215 222 224 224 227 229 232 238 246 255 266 272 269 263 262 260 263 271 279 293 298 294 279
217 217 214 218 222 226 230 233 228 227 239 243 245 239 227 218 223 225 223 228 209 201 200 195 198 201 202 203 210 221 225 230 234 239 250 256 260 263 259 253 254 254 264 279 284 290 292 282 266
218 220 218 217 219 221 228 228 220 226 238 252 255 229 216 213 214 208 207 202 192 189 188 186 180 185 195 208 219 219 228 232 242 242 244 245 242 247 244 239 244 256 273 288 293 292 279 264 245
222 217 213 215 219 223 227 230 225 216 234 256 245 213 206 205 193 193 191 189 184 180 177 177 183 193 209 210 216 226 233 243 235 233 234 225 228 236 237 227 242 276 285 293 296 296 268 248 230